ASIASTAR

Last updated on Sun Apr 12 2026 00:02:50 GMT+0000 (Coordinated Universal Time)

1 26107U 00016A 26101.32753624 -.00000327 00000+0 00000+0 0 9996 2 26107 8.9755 58.8559 0005007 329.5489 34.0519 1.00275465 95257
UTC large
Height (km)
Speed (km/s)
/
Latitude / Longitude
Inclination (degrees)
Orbital Period (minutes)
Azimuth
Elevation
Range (km)
Doppler Factor

Next 0 passes for location: London (51.5072 / 0.1276)

Sorry there are no passes over London.
ASIASTAR